Regional Weather Roundup
Issued by NWS

Home | Current Version | Previous Version | Graphics & Text | Print | Product List | Glossary On
Versions: 1 2 3 4 5 6 7 8 9 10 11 12 13 14 15 16 17 18 19 20 21 22 23 24 25 26 27 28 29 30 31 32 33 34 35 36 37 38 39 40 41 42 43 44 45 46 47 48 49 50
000
ASUS43 KFSD 240502
RWRSD

WEATHER ROUNDUP FOR SOUTH DAKOTA
NATIONAL WEATHER SERVICE SIOUX FALLS SD
1200 AM CDT THU JUL 24 2014

NOTE: "FAIR" INDICATES FEW OR NO CLOUDS BELOW 12,000 FEET WITH NO
SIGNIFICANT WEATHER AND/OR OBSTRUCTIONS TO VISIBILITY.


SDZ001>005-009-010-012>017-240600-
NORTHWEST AND NORTH CENTRAL SOUTH DAKOTA

CITY           SKY/WX    TMP DP  RH WIND       PRES   REMARKS
BUFFALO          N/A     71  58  63 E17       29.95F
FAITH            N/A     71  53  52 SE22      30.03F
MOBRIDGE       CLEAR     69  57  65 SE15      30.08S
$$

SDZ012>016-024>037-041>051-057-063-072>074-240600-
SOUTHWEST AND SOUTH CENTRAL SOUTH DAKOTA

CITY           SKY/WX    TMP DP  RH WIND       PRES   REMARKS
RAPID CTY ARPT PTCLDY    69  63  81 S8        30.03F
PIERRE         CLEAR     71  57  61 SE15      30.08S
CUSTER         PTCLDY    65  61  87 NW3       30.19F
ELLSWORTH AFB  PTCLDY    70  64  80 S12       30.02F
PHILIP         CLEAR     74  57  55 E10       30.04S
PINE RIDGE     CLEAR     75  62  64 S18G29    30.03F
WINNER         FAIR      68  57  68 SE8       30.10F
$$

SDZ004>011-016>023-039-040-240600-
NORTHEAST SOUTH DAKOTA

CITY           SKY/WX    TMP DP  RH WIND       PRES   REMARKS
ABERDEEN       CLEAR     62  57  83 SE6       30.15S
WATERTOWN      CLEAR     65  56  72 SE6       30.18S
SISSETON         N/A     62  60  93 CALM      30.17R
$$

SDZ017-020-022-023-036>040-048>070-240600-
SOUTHEAST SOUTH DAKOTA

CITY           SKY/WX    TMP DP  RH WIND       PRES   REMARKS
SIOUX FALLS    CLEAR     65  57  75 E7        30.18R
HURON          CLEAR     68  55  63 SE8       30.14S
CHAMBERLAIN    CLEAR     67  59  74 SE7       30.12F
MITCHELL       CLEAR     67  59  75 SE8       30.15F
YANKTON        CLEAR     66  61  82 CALM      30.16S
$$

ABBREVIATIONS USED IN REMARKS
   TC - TEMPERATURE IN CELSIUS
  WCI - WIND CHILL INDEX
   HX - HEAT INDEX
  VSB - VISIBILITY



USA.gov is the U.S. government's official web portal to all federal, state and local government web resources and services.